Location: Great Malvern
(52.1167°N, 2.3167°W)
Time: 01:59:44
(UTC+00:00)

Cosmos 1513 Rocket - Pass Details

Date: 18 September 2020
Orbit: 939 x 1009 km, 82.9° (Epoch: 22 October)

Event Time Altitude Azimuth Distance (km) Brightness Sun altitude
Rises 19:35:01 0° 181° (S) 3,690 7.3 -12.7°
Reaches altitude 10° 19:37:33 10° 180° (S) 2,736 6.7 -13.1°
Maximum altitude 19:43:48 74° 97° (E) 1,012 4.4 -13.9°
Drops below altitude 10° 19:49:58 10° 13° (NNE) 2,705 6.9 -14.8°
Sets 19:52:28 0° 12° (NNE) 3,646 7.6 -15.2°
